STARLINK-5641 (55359 NORAD) Tracking and Keplerian Element Data

This shows tracking and keplerian element data for the satellite.

Feedback or suggestion? Click here.




ElementValue
Catalog55359
NameSTARLINK-5641
Epoch Orbit1607
Epoch Day127.17051901
Epoch Year2023
RAAN177.5684
Inclination43.0012
Eccentricity0.0001777
Argument of Perigee274.5803
Mean Anonmoly85.4836
Mean Motion15.02526157
Decay Rate-1.09E-06
L11 55359U 23013AE 23127.17051901 -.00000109 00000+0 70474-5 0 9992
L22 55359 43.0012 177.5684 0001777 274.5803 85.4836 15.02526157 16070



Live tracking and technical data element details for STARLINK-5641 (NORAD 55359). STARLINK-5641 can be tracked NOW for your location showing map with azimuth and elevation plus other details from your city location.







IsCatalogInMostPopularTable: catalog: 55359, numindb: 1
Update: records affected: 1



GetName: 55359 STARLINK-5641

Hit Count: updated at: Mon, 05 Jun 2023 20:11:05 GMT